Location: Holiday Acres Laynes 2 Mobile Home Park
(26.7249°N, 81.8671°W)
Time: 06:30:53
(UTC+00:00)

H-2A R/B - Pass Details

Date: 25 November 2020
Orbit: 529 x 651 km, 98.3° (Epoch: 21 January)

Event Time Altitude Azimuth Distance (km) Brightness Sun altitude
Rises 23:12:36 0° 184° (S) 2,938 6.4 -8.8°
Reaches altitude 10° 23:14:57 10° 193° (SSW) 2,020 5.6 -9.3°
Maximum altitude 23:19:01 37° 260° (W) 982 4.4 -10.2°
Drops below altitude 10° 23:23:01 10° 328° (NNW) 1,973 5.3 -11.0°
Sets 23:25:18 0° 337° (NNW) 2,860 6.0 -11.5°
